This is the latest recevied weather packets stored in our database for station/object KD7CTY. If no packets are shown the sender has not sent any weather packets the latest 10 day(s).
| Time | Temp. | Humidity | Pressure | Rain* | Wind** | Luminosity | Snow |
|---|---|---|---|---|---|---|---|
| 1777778396 | 20° C | 48% | 1012.2 hPa | 0 mm | - | 4 W/m² | - |
| 1777778094 | 20° C | 48% | 1012.2 hPa | 0 mm | - | 6 W/m² | - |
| 1777777790 | 20.56° C | 48% | 1012.3 hPa | 0 mm | - | 10 W/m² | - |
| 1777777487 | 20.56° C | 47% | 1012.1 hPa | 0 mm | - | 11 W/m² | - |
| 1777777184 | 20.56° C | 47% | 1012 hPa | 0 mm | - | 15 W/m² | - |
| 1777776880 | 21.11° C | 46% | 1011.8 hPa | 0 mm | - | 18 W/m² | - |
| 1777776578 | 21.11° C | 46% | 1011.7 hPa | 0 mm | - | 21 W/m² | - |
| 1777776274 | 21.67° C | 46% | 1012 hPa | 0 mm | - | 23 W/m² | - |
| 1777775972 | 21.67° C | 46% | 1011.9 hPa | 0 mm | - | 28 W/m² | - |
| 1777775669 | 22.22° C | 45% | 1011.8 hPa | 0 mm | - | 30 W/m² | - |
| 1777775365 | 22.22° C | 45% | 1011.9 hPa | 0 mm | - | 34 W/m² | - |
| 1777775060 | 22.22° C | 45% | 1012 hPa | 0 mm | - | 38 W/m² | - |
| 1777774756 | 22.78° C | 45% | 1011.9 hPa | 0 mm | - | 38 W/m² | - |
| 1777774452 | 22.78° C | 45% | 1011.8 hPa | 0 mm | - | 51 W/m² | - |
| 1777774150 | 22.78° C | 46% | 1012 hPa | 0 mm | - | 78 W/m² | - |
| 1777773848 | 22.78° C | 45% | 1011.9 hPa | 0 mm | - | 89 W/m² | - |
| 1777773544 | 22.78° C | 45% | 1012 hPa | 0 mm | - | 47 W/m² | - |
| 1777773241 | 23.33° C | 44% | 1012.1 hPa | 0 mm | - | 117 W/m² | - |
| 1777772937 | 23.33° C | 44% | 1012.1 hPa | 0 mm | - | 51 W/m² | - |
| 1777772634 | 23.89° C | 43% | 1012.1 hPa | 0 mm | - | 145 W/m² | - |
| 1777772332 | 23.89° C | 44% | 1012.2 hPa | 0 mm | - | 54 W/m² | - |
| 1777772029 | 23.89° C | 44% | 1012.2 hPa | 0 mm | - | 57 W/m² | - |
| 1777771726 | 23.89° C | 44% | 1011.9 hPa | 0 mm | - | 189 W/m² | - |
| 1777771424 | 23.89° C | 43% | 1012.1 hPa | 0 mm | - | 205 W/m² | - |
| 1777771120 | 23.89° C | 43% | 1012 hPa | 0 mm | - | 223 W/m² | - |
* Rain latest hour (hover to see other rain measurements)
** Current wind speed in m/s (hover to see current wind gust speed)